Weather History for Alva, OK

Change the Weather History Date:

Friday, February 22, 2013

  Actual Average Record
Temperature  
Mean Temperature 12 °F -  
Max Temperature 24 °F 52 °F 74 °F (1977)
Min Temperature 1 °F 29 °F 1 °F (2013)
Degree Days  
Heating Degree Days 52    
Moisture  
Dew Point 8 °F    
Average Humidity 83    
Maximum Humidity 100    
Minimum Humidity 69    
Precipitation  
Precipitation 0.00 in - - ()
Sea Level Pressure  
Sea Level Pressure 30.08 in    
Wind  
Wind Speed 8 mph (West)    
Max Wind Speed 17 mph    
Max Gust Speed -    
Visibility 10 miles    
Events      
Averages and records for this station are not official NWS values.
T = Trace of Precipitation, MM = Missing Value Source: NWS Daily Summary

Daily Weather History Graph

Daily Weather History Graph

Search for Another Location

Airport:

Trip Planner

Search our weather history database for the weather conditions in past years. The results will help you decide how hot, cold, wet, or windy it might be!

Date:

Astronomy

Feb. 22, 2013 Rise Set
Actual Time 7:14 AM CST 6:22 PM CST
Civil Twilight 6:48 AM CST 6:48 PM CST
Nautical Twilight 6:17 AM CST 7:18 PM CST
Astronomical Twilight 5:47 AM CST 7:48 PM CST
Moon 3:38 PM CST (2/22) 4:57 AM CST (2/22)
Length of Visible Light 12h 00m
Length of Day
11h 08m
Waxing Gibbous, 90% of the Moon is Illuminated
Feb 22
Waxing Gibbous
Feb 25
Full
Mar 4
Last Quarter
Mar 11
New
Mar 19
First Quarter

Hourly Weather History & Observations

Time (CST) Temp. Windchill Dew Point Humidity Pressure Visibility Wind Dir Wind Speed Gust Speed Precip Events Conditions
12:10 AM 10.4 °F -1.5 °F 6.8 °F 85% 29.98 in 10.0 mi West 8.1 mph - N/A   Clear
12:30 AM 8.6 °F -2.6 °F 5.0 °F 85% 30.00 in 10.0 mi West 6.9 mph - N/A   Clear
12:50 AM 8.6 °F -6.3 °F 5.0 °F 85% 30.01 in 10.0 mi WSW 11.5 mph - N/A   Clear
1:10 AM 10.4 °F -4.8 °F 6.8 °F 85% 30.02 in 10.0 mi West 12.7 mph - N/A   Clear
1:30 AM 10.4 °F -7.2 °F 6.8 °F 85% 30.00 in 10.0 mi WNW 17.3 mph - N/A   Clear
1:50 AM 10.4 °F -4.8 °F 5.0 °F 79% 30.01 in 10.0 mi WNW 12.7 mph - N/A   Clear
2:10 AM 8.6 °F -7.7 °F 5.0 °F 85% 30.00 in 10.0 mi WNW 13.8 mph - N/A   Clear
2:30 AM 8.6 °F -5.5 °F 5.0 °F 85% 30.00 in 10.0 mi WNW 10.4 mph - N/A   Clear
2:50 AM 8.6 °F -7.0 °F 5.0 °F 85% 30.00 in 10.0 mi WNW 12.7 mph - N/A   Clear
3:10 AM 8.6 °F -6.3 °F 5.0 °F 85% 30.01 in 10.0 mi WNW 11.5 mph - N/A   Clear
3:30 AM 6.8 °F -5.9 °F 1.4 °F 79% 30.01 in 10.0 mi WNW 8.1 mph - N/A   Clear
3:50 AM 6.8 °F -3.5 °F 3.2 °F 85% 30.01 in 10.0 mi West 5.8 mph - N/A   Clear
4:10 AM 5.0 °F -6.9 °F 1.4 °F 85% 30.02 in 10.0 mi West 6.9 mph - N/A   Clear
4:30 AM 5.0 °F -6.9 °F 1.4 °F 85% 30.03 in 10.0 mi West 6.9 mph - N/A   Clear
4:50 AM 5.0 °F -8.1 °F -0.4 °F 78% 30.03 in 10.0 mi West 8.1 mph - N/A   Clear
5:10 AM 3.2 °F -11.3 °F -0.4 °F 85% 30.03 in 10.0 mi WNW 9.2 mph - N/A   Clear
5:30 AM 1.4 °F -8.3 °F -0.4 °F 92% 30.04 in 10.0 mi West 4.6 mph - N/A   Clear
5:50 AM 1.4 °F -12.5 °F -0.4 °F 92% 30.05 in 10.0 mi West 8.1 mph - N/A   Clear
6:10 AM 1.4 °F -12.5 °F -0.4 °F 92% 30.05 in 10.0 mi West 8.1 mph - N/A   Clear
6:30 AM 1.4 °F -11.3 °F -0.4 °F 92% 30.05 in 10.0 mi West 6.9 mph - N/A   Clear
6:50 AM 1.4 °F -14.5 °F -2.2 °F 85% 30.05 in 10.0 mi West 10.4 mph - N/A   Clear
7:10 AM 1.4 °F -15.3 °F -2.2 °F 85% 30.06 in 10.0 mi West 11.5 mph - N/A   Clear
7:30 AM 1.4 °F -12.5 °F -2.2 °F 85% 30.06 in 10.0 mi West 8.1 mph - N/A   Clear
7:50 AM 3.2 °F -11.3 °F -0.4 °F 85% 30.07 in 10.0 mi WNW 9.2 mph - N/A   Clear
8:10 AM 3.2 °F -6.2 °F -0.4 °F 85% 30.09 in 10.0 mi WNW 4.6 mph - N/A   Clear
8:30 AM 5.0 °F -4.1 °F -0.4 °F 78% 30.11 in 10.0 mi WSW 4.6 mph - N/A   Clear
8:50 AM 5.0 °F -9.1 °F -0.4 °F 78% 30.12 in 10.0 mi WSW 9.2 mph - N/A   Clear
9:10 AM 6.8 °F -5.9 °F 1.4 °F 79% 30.13 in 10.0 mi WSW 8.1 mph - N/A   Clear
9:30 AM 8.6 °F -3.7 °F 5.0 °F 85% 30.12 in 10.0 mi West 8.1 mph - N/A   Clear
9:50 AM 10.4 °F -2.4 °F 6.8 °F 85% 30.13 in 10.0 mi West 9.2 mph - N/A   Clear
10:10 AM 14.0 °F 2.9 °F 6.8 °F 73% 30.14 in 10.0 mi West 8.1 mph - N/A   Clear
10:30 AM 14.0 °F 2.9 °F 8.6 °F 79% 30.14 in 10.0 mi West 8.1 mph - N/A   Clear
10:50 AM 14.0 °F 2.0 °F 8.6 °F 79% 30.13 in 10.0 mi West 9.2 mph - N/A   Clear
11:10 AM 15.8 °F 3.4 °F 10.4 °F 79% 30.14 in 10.0 mi West 10.4 mph - N/A   Clear
11:30 AM 17.6 °F 6.4 °F 10.4 °F 73% 30.15 in 10.0 mi West 9.2 mph - N/A   Clear
11:50 AM 17.6 °F 5.7 °F 10.4 °F 73% 30.15 in 10.0 mi West 10.4 mph - N/A   Clear
12:10 PM 17.6 °F 5.7 °F 12.2 °F 79% 30.15 in 10.0 mi West 10.4 mph - N/A   Clear
12:30 PM 19.4 °F 9.5 °F 14.0 °F 80% 30.14 in 10.0 mi West 8.1 mph - N/A   Clear
12:50 PM 19.4 °F 7.9 °F 14.0 °F 80% 30.13 in 10.0 mi NW 10.4 mph - N/A   Clear
1:10 PM 21.2 °F 13.6 °F 15.8 °F 80% 30.13 in 10.0 mi West 5.8 mph - N/A   Clear
1:30 PM 23.0 °F 15.8 °F 15.8 °F 74% 30.12 in 9.0 mi WNW 5.8 mph - N/A   Clear
1:50 PM 23.0 °F 13.9 °F 15.8 °F 74% 30.12 in 10.0 mi NW 8.1 mph - N/A   Clear
2:10 PM 23.0 °F 13.1 °F 15.8 °F 74% 30.11 in 10.0 mi NW 9.2 mph - N/A   Clear
2:30 PM 23.0 °F 13.1 °F 15.8 °F 74% 30.11 in 10.0 mi NW 9.2 mph - N/A   Clear
2:50 PM 24.8 °F 14.6 °F 15.8 °F 69% 30.10 in 10.0 mi NW 10.4 mph - N/A   Clear
3:10 PM 24.8 °F 15.3 °F 15.8 °F 69% 30.09 in 10.0 mi NW 9.2 mph - N/A   Clear
3:30 PM 24.8 °F 17.9 °F 15.8 °F 69% 30.10 in 10.0 mi NW 5.8 mph - N/A   Clear
3:50 PM 24.8 °F 17.9 °F 15.8 °F 69% 30.10 in 10.0 mi NW 5.8 mph - N/A   Clear
4:10 PM 24.8 °F 20.5 °F 17.6 °F 74% 30.10 in 10.0 mi West 3.5 mph - N/A   Clear
4:30 PM 23.0 °F 17.0 °F 17.6 °F 80% 30.10 in 10.0 mi WSW 4.6 mph - N/A   Clear
4:50 PM 23.0 °F 17.0 °F 17.6 °F 80% 30.09 in 10.0 mi West 4.6 mph - N/A   Clear
5:10 PM 21.2 °F 14.9 °F 15.8 °F 80% 30.09 in 10.0 mi West 4.6 mph - N/A   Clear
5:30 PM 21.2 °F 16.4 °F 15.8 °F 80% 30.08 in 10.0 mi West 3.5 mph - N/A   Clear
5:50 PM 19.4 °F 14.3 °F 15.8 °F 86% 30.09 in 10.0 mi WSW 3.5 mph - N/A   Clear
6:10 PM 23.0 °F 17.0 °F 15.8 °F 74% 30.09 in 10.0 mi West 4.6 mph - N/A   Clear
6:30 PM 21.2 °F - 15.8 °F 80% 30.09 in 10.0 mi Calm Calm - N/A   Mostly Cloudy
6:50 PM 19.4 °F 12.8 °F 15.8 °F 86% 30.10 in 10.0 mi WNW 4.6 mph - N/A   Overcast
7:10 PM 17.6 °F 12.3 °F 15.8 °F 93% 30.10 in 10.0 mi WNW 3.5 mph - N/A   Mostly Cloudy
7:30 PM 15.8 °F 8.6 °F 14.0 °F 93% 30.10 in 10.0 mi WNW 4.6 mph - N/A   Partly Cloudy
7:50 PM 17.6 °F 10.7 °F 14.0 °F 86% 30.11 in 10.0 mi WNW 4.6 mph - N/A   Clear
8:10 PM 15.8 °F 6.1 °F 14.0 °F 93% 30.11 in 10.0 mi WNW 6.9 mph - N/A   Clear
8:30 PM 14.0 °F 3.9 °F 12.2 °F 93% 30.11 in 9.0 mi WNW 6.9 mph - N/A   Clear
8:50 PM 14.0 °F 5.1 °F 12.2 °F 93% 30.11 in 10.0 mi WNW 5.8 mph - N/A   Clear
9:10 PM 14.0 °F 8.2 °F 12.2 °F 93% 30.11 in 10.0 mi West 3.5 mph - N/A   Clear
9:30 PM 12.2 °F 4.3 °F 10.4 °F 92% 30.11 in 10.0 mi West 4.6 mph - N/A   Clear
9:50 PM 10.4 °F 0.8 °F 8.6 °F 92% 30.12 in 10.0 mi WSW 5.8 mph - N/A   Clear
10:10 PM 8.6 °F -3.7 °F 6.8 °F 92% 30.12 in 7.0 mi WSW 8.1 mph - N/A   Clear
10:30 PM 8.6 °F -1.3 °F 6.8 °F 92% 30.12 in 7.0 mi WSW 5.8 mph - N/A   Clear
10:50 PM 8.6 °F 0.1 °F 6.8 °F 92% 30.12 in 5.0 mi WSW 4.6 mph - N/A   Clear
11:10 PM 10.4 °F -0.4 °F 10.4 °F 100% 30.11 in 7.0 mi WSW 6.9 mph - N/A   Scattered Clouds
11:30 PM 8.6 °F 0.1 °F 6.8 °F 92% 30.11 in 5.0 mi WSW 4.6 mph - N/A   Mostly Cloudy
11:50 PM 6.8 °F -3.5 °F 5.0 °F 92% 30.11 in 4.0 mi WSW 5.8 mph - N/A   Mostly Cloudy